sat.trackr.live / text

‹ back to catalog

STARLINK-5609

NORAD 55348 · 2023-013T

PAYLOAD ACTIVE UNKNOWN

§ Identity

Operator
Country
US
Launch date
2023-01-26
Launch site
AFETR
Launch vehicle
Mass (kg)
RCS (m²)

Purposes: comms

External: N2YO · Heavens-Above · Gunter

§ Orbital elements

Epoch: 2026-05-24T15:44:30.101280Z

Period
94.27 min
Inclination
43.0025°
Eccentricity
0.0001487
Mean motion
15.27577220 rev/d
Perigee alt
482.0 km
Apogee alt
484.1 km
Semi-major
6,861.2 km
B*
1.8025e-5
RAAN
234.1993°
Arg perigee
268.7568°
Mean anomaly
91.3113°
Rev number
18,329

§ Raw data

STARLINK-56091 55348U 23013T   26144.65590395  .00000234  00000+0  18025-4 0  99912 55348  43.0025 234.1993 0001487 268.7568  91.3113 15.27577220183293

JSON: /api/v1/satellites/55348 · /tle

For live sub-satellite position, see the globe view (requires WebGL).

§ Visibility from observer

Set your observer location to see the next 7 days of passes ≥ 10°. The values pass through the URL so the page stays shareable.

No JS? Fill the form by hand. The geolocation button needs JavaScript.